Location: Pian di Sc�
(43.6333°N, 11.5500°E)
Time: 18:14:32
(UTC+00:00)

Cosmos 1538 Rocket - Pass Details

Date: 07 August 2020
Orbit: 752 x 792 km, 74.0° (Epoch: 17 September)

Event Time Altitude Azimuth Distance (km) Brightness Sun altitude
Rises 01:28:58 0° 332° (NNW) 3,213 7.6 -23.1°
Reaches altitude 10° 01:31:26 10° 326° (NW) 2,284 6.7 -22.9°
Enters shadow 01:35:54 41° 268° (W) 1,095 4.5 -22.4°
